Zurück zum Katalog

STARLINK-33715

AktivKommunikationVLEO
NORAD 63441·PAYLOAD·🇺🇸 United States

Gestartet Apr 4, 2025 von Vandenberg Space Force Base

Loading…

Nächste Überflüge (nächste 24 Stunden)

TLE

AktuellSource: CelesTrak SupGP

Epoche: Sep 14, 2026, 21:21 UTC

1 63441C 25069J   26257.89006944 -.00017307  00000+0 -51153-3 0  2576
2 63441  53.1598 334.2942 0001330  80.1723 283.5716 15.34388400    15

Verfolge STARLINK-33715 in Echtzeit mit AllMySat

Download on the App Store